Weather History for Fairbanks, AK

Change the Weather History Date:

Tuesday, December 6, 2011

  Actual Average Record
Temperature  
Mean Temperature 2 °F -3 °F  
Max Temperature 14 °F 6 °F 51 °F (1934)
Min Temperature -10 °F -12 °F -58 °F (1935)
Degree Days  
Heating Degree Days 63 68  
Month to date heating degree days 298 405  
Since 1 July heating degree days 4413 4536  
Cooling Degree Days 0 0  
Month to date cooling degree days 0 0  
Year to date cooling degree days 39 61  
Moisture  
Dew Point -2 °F    
Average Humidity 75    
Maximum Humidity 86    
Minimum Humidity 43    
Precipitation  
Precipitation T in 0.02 in 0.30 in (2008)
Month to date precipitation 0.13 0.11  
Year to date precipitation 8.72 10.28  
Snow  
Snow T in 0.40 in 2.80 in (2008)
Month to date snowfall 2.0 2.2  
Since 1 July snowfall 15.4 28.0  
Snow Depth 8.00 in    
Sea Level Pressure  
Sea Level Pressure 30.46 in    
Wind  
Wind Speed 5 mph (NNW)    
Max Wind Speed 14 mph    
Max Gust Speed -    
Visibility 6 miles    
Events Snow    
T = Trace of Precipitation, MM = Missing Value Source: NWS Daily Summary

Daily Weather History Graph

Daily Weather History Graph

Search for Another Location

Airport:

Trip Planner

Search our weather history database for the weather conditions in past years. The results will help you decide how hot, cold, wet, or windy it might be!

Date:

Astronomy

Dec. 06, 2011 Rise Set
Actual Time 10:32 AM AKST 2:51 PM AKST
Civil Twilight 9:14 AM AKST 4:10 PM AKST
Nautical Twilight 8:04 AM AKST 5:19 PM AKST
Astronomical Twilight 7:04 AM AKST 6:20 PM AKST
Moon 1:22 PM AKST (12/6) 5:56 AM AKST (12/6)
Length of Visible Light 6h 56m
Length of Day
4h 19m
Waxing Gibbous, 87% of the Moon is Illuminated
Dec 6
Waxing Gibbous
Dec 10
Full
Dec 17
Last Quarter
Dec 24
New
Dec 31
First Quarter

Hourly Weather History & Observations

Time (AKST) Temp. Windchill Dew Point Humidity Pressure Visibility Wind Dir Wind Speed Gust Speed Precip Events Conditions
12:53 AM 14.0 °F 3.9 °F 5.0 °F 67% 30.27 in 10.0 mi WSW 6.9 mph - 0.00 in Snow Light Snow
1:53 AM 12.0 °F -3.4 °F 5.0 °F 73% 30.31 in 6.0 mi West 13.8 mph - 0.00 in Snow Light Snow
3:53 AM 10.9 °F 0.2 °F 5.0 °F 77% 30.37 in 9.0 mi WSW 6.9 mph - 0.00 in Snow Light Snow
4:53 AM 10.0 °F 0.4 °F 5.0 °F 80% 30.39 in 8.0 mi West 5.8 mph - 0.00 in Snow Light Snow
5:53 AM 10.0 °F -0.9 °F 5.0 °F 80% 30.40 in 8.0 mi West 6.9 mph - 0.00 in Snow Light Snow
6:53 AM 10.9 °F 4.7 °F 4.1 °F 74% 30.43 in 8.0 mi SSW 3.5 mph - 0.00 in Snow Light Snow
7:53 AM 12.9 °F 1.6 °F 1.0 °F 59% 30.44 in 8.0 mi West 8.1 mph - 0.00 in Snow Light Snow
8:53 AM 19.0 °F 13.9 °F -0.0 °F 43% 30.45 in 8.0 mi SSW 3.5 mph - N/A   Mostly Cloudy
9:53 AM 8.1 °F - -0.9 °F 67% 30.47 in 6.0 mi Calm Calm - N/A   Mostly Cloudy
10:53 AM 1.9 °F - -5.1 °F 72% 30.50 in 4.0 mi Calm Calm - N/A   Mostly Cloudy
11:53 AM 6.1 °F - -8.0 °F 53% 30.51 in 4.0 mi Calm Calm - N/A   Scattered Clouds
12:53 PM -5.1 °F - -9.9 °F 80% 30.53 in 4.0 mi Calm Calm - N/A   Scattered Clouds
1:53 PM -9.9 °F -21.5 °F -14.1 °F 82% 30.53 in 3.0 mi NNE 4.6 mph - N/A   Scattered Clouds
2:53 PM -8.0 °F -19.2 °F -11.0 °F 86% 30.53 in 3.0 mi NE 4.6 mph - N/A   Mostly Cloudy
3:53 PM -5.1 °F -17.6 °F -9.0 °F 83% 30.52 in 4.0 mi NE 5.8 mph - N/A   Mostly Cloudy
4:53 PM -2.0 °F -10.1 °F -7.1 °F 79% 30.53 in 6.0 mi NNE 3.5 mph - N/A   Mostly Cloudy
5:53 PM 1.0 °F -6.7 °F -2.9 °F 83% 30.52 in 6.0 mi North 3.5 mph - N/A   Mostly Cloudy
6:53 PM 1.9 °F -5.6 °F -2.9 °F 80% 30.51 in 6.0 mi NE 3.5 mph - 0.00 in Snow Light Snow
7:53 PM 3.9 °F -3.4 °F -0.0 °F 84% 30.50 in 4.0 mi NE 3.5 mph - 0.00 in Snow Light Snow
8:53 PM 6.1 °F - 1.9 °F 83% 30.47 in 4.0 mi Calm Calm - 0.00 in Snow Light Snow
9:53 PM 5.0 °F - 1.0 °F 84% 30.47 in 4.0 mi Calm Calm - 0.00 in Snow Light Snow
10:53 PM 1.0 °F -6.7 °F -2.9 °F 83% 30.45 in 7.0 mi NNE 3.5 mph - 0.00 in   Mostly Cloudy
11:53 PM -0.0 °F -13.0 °F -4.0 °F 83% 30.42 in 7.0 mi NNE 6.9 mph - N/A   Mostly Cloudy